• In Uzbekistan
  • List of Countries
  • For 7 days
  • Water Temperature
  • Satellite Maps
  • Weather Map
  • Weather Widgets
  • user-avatar
    Login

    Hourly Weather Bad Heilbrunn

    Today, 23 October, Tuesday

    Time Temperature Precipitation Wind Pressure Humidity
    00:00 +3°C° 0 mm 3 mps 741 mmHg 86%
    01:00 +2°C° 0 mm 3 mps 740 mmHg 87%
    02:00 +3°C° 0 mm 4 mps 740 mmHg 86%
    03:00 +3°C° 0 mm 4 mps 739 mmHg 85%
    04:00 +2°C° 0 mm 5 mps 738 mmHg 84%
    05:00 +3°C° 0 mm 6 mps 737 mmHg 83%
    06:00 +3°C° 0 mm 7 mps 737 mmHg 82%
    07:00 +3°C° 0 mm 7 mps 736 mmHg 80%
    08:00 +4°C° 0.1 mm 8 mps 736 mmHg 80%
    09:00 +5°C° 0.1 mm 8 mps 735 mmHg 79%
    10:00 +6°C° 0.1 mm 9 mps 735 mmHg 78%
    11:00 +6°C° 0.2 mm 9 mps 734 mmHg 80%
    12:00 +7°C° 0.2 mm 9 mps 734 mmHg 81%
    13:00 +7°C° 0.2 mm 9 mps 733 mmHg 83%
    14:00 +7°C° 0.2 mm 9 mps 733 mmHg 84%
    15:00 +8°C° 0.2 mm 9 mps 732 mmHg 84%
    16:00 +8°C° 0.2 mm 9 mps 732 mmHg 85%
    17:00 +8°C° 0.2 mm 9 mps 732 mmHg 85%
    18:00 +8°C° 0.2 mm 9 mps 731 mmHg 85%
    19:00 +8°C° 0.2 mm 9 mps 731 mmHg 85%
    20:00 +9°C° 0.3 mm 10 mps 731 mmHg 85%
    21:00 +9°C° 0.3 mm 10 mps 731 mmHg 85%
    22:00 +9°C° 0.3 mm 10 mps 730 mmHg 86%
    23:00 +9°C° 0.2 mm 10 mps 730 mmHg 85%

    Tomorrow, 24 October, Wednesday

    Time Temperature Precipitation Wind Pressure Humidity
    00:00 +9°C° 0.2 mm 10 mps 730 mmHg 85%
    01:00 +11°C° 0.2 mm 10 mps 730 mmHg 85%
    02:00 +11°C° 0.4 mm 10 mps 730 mmHg 86%
    03:00 +11°C° 0.4 mm 9 mps 730 mmHg 86%
    04:00 +11°C° 0.4 mm 9 mps 730 mmHg 87%
    05:00 +10°C° 0.2 mm 9 mps 730 mmHg 86%
    06:00 +10°C° 0.2 mm 8 mps 731 mmHg 85%
    07:00 +9°C° 0.2 mm 8 mps 731 mmHg 85%
    08:00 +9°C° 0 mm 8 mps 731 mmHg 81%
    09:00 +9°C° 0 mm 8 mps 732 mmHg 78%
    10:00 +7°C° 0 mm 8 mps 733 mmHg 74%
    11:00 +9°C° 0 mm 7 mps 733 mmHg 71%
    12:00 +9°C° 0 mm 7 mps 733 mmHg 67%
    13:00 +9°C° 0 mm 6 mps 734 mmHg 64%
    14:00 +9°C° 0 mm 6 mps 734 mmHg 65%
    15:00 +9°C° 0 mm 6 mps 734 mmHg 66%
    16:00 +9°C° 0 mm 5 mps 734 mmHg 66%
    17:00 +8°C° 0 mm 4 mps 734 mmHg 71%
    18:00 +7°C° 0 mm 4 mps 734 mmHg 75%
    19:00 +7°C° 0 mm 3 mps 734 mmHg 79%
    20:00 +8°C° 0 mm 3 mps 734 mmHg 82%
    21:00 +8°C° 0 mm 3 mps 734 mmHg 84%
    22:00 +7°C° 0 mm 4 mps 734 mmHg 86%
    23:00 +8°C° 0.1 mm 4 mps 734 mmHg 87%

    Day after tomorrow, 25 October, Thursday

    Time Temperature Precipitation Wind Pressure Humidity
    00:00 +9°C° 0.1 mm 5 mps 734 mmHg 89%
    01:00 +10°C° 0.1 mm 6 mps 733 mmHg 90%
    02:00 +10°C° 0.1 mm 6 mps 733 mmHg 89%
    03:00 +10°C° 0.1 mm 6 mps 733 mmHg 87%
    04:00 +10°C° 0.1 mm 6 mps 732 mmHg 86%
    05:00 +9°C° 0.1 mm 6 mps 732 mmHg 86%
    06:00 +9°C° 0.1 mm 6 mps 732 mmHg 87%
    07:00 +8°C° 0.1 mm 5 mps 731 mmHg 88%
    08:00 +9°C° 0 mm 6 mps 731 mmHg 85%
    09:00 +9°C° 0 mm 6 mps 731 mmHg 82%
    10:00 +9°C° 0 mm 7 mps 731 mmHg 79%
    11:00 +9°C° 0 mm 7 mps 731 mmHg 80%
    12:00 +10°C° 0 mm 7 mps 731 mmHg 80%
    13:00 +10°C° 0 mm 7 mps 731 mmHg 81%
    14:00 +10°C° 0 mm 7 mps 731 mmHg 82%
    15:00 +9°C° 0 mm 6 mps 731 mmHg 83%
    16:00 +9°C° 0 mm 6 mps 731 mmHg 83%
    17:00 +9°C° 0.1 mm 6 mps 731 mmHg 85%
    18:00 +9°C° 0.1 mm 5 mps 731 mmHg 86%
    19:00 +9°C° 0.1 mm 5 mps 731 mmHg 87%
    20:00 +9°C° 0.1 mm 5 mps 730 mmHg 88%
    21:00 +10°C° 0.1 mm 4 mps 730 mmHg 89%
    22:00 +8°C° 0.1 mm 4 mps 730 mmHg 90%
    23:00 +8°C° 0 mm 4 mps 730 mmHg 91%

    26 October, Friday

    Time Temperature Precipitation Wind Pressure Humidity
    00:00 +9°C° 0 mm 3 mps 730 mmHg 92%
    01:00 +8°C° 0 mm 3 mps 729 mmHg 93%
    02:00 +8°C° 0 mm 3 mps 729 mmHg 93%
    03:00 +7°C° 0 mm 3 mps 728 mmHg 94%
    04:00 +7°C° 0 mm 3 mps 728 mmHg 94%
    05:00 +7°C° 0 mm 3 mps 727 mmHg 94%
    06:00 +5°C° 0 mm 3 mps 726 mmHg 95%
    07:00 +5°C° 0 mm 3 mps 726 mmHg 95%
    08:00 +7°C° 0 mm 3 mps 726 mmHg 91%
    09:00 +6°C° 0 mm 4 mps 725 mmHg 86%
    10:00 +7°C° 0 mm 5 mps 725 mmHg 82%
    11:00 +8°C° 0 mm 5 mps 724 mmHg 79%
    12:00 +8°C° 0 mm 5 mps 724 mmHg 76%
    13:00 +9°C° 0 mm 5 mps 723 mmHg 73%
    14:00 +9°C° 0 mm 5 mps 723 mmHg 73%
    15:00 +9°C° 0 mm 5 mps 722 mmHg 74%
    16:00 +8°C° 0 mm 5 mps 722 mmHg 74%
    17:00 +8°C° 0.1 mm 5 mps 722 mmHg 77%
    18:00 +7°C° 0.1 mm 5 mps 722 mmHg 79%
    19:00 +7°C° 0.1 mm 5 mps 721 mmHg 81%
    20:00 +6°C° 0.2 mm 5 mps 721 mmHg 80%
    21:00 +6°C° 0.2 mm 5 mps 721 mmHg 78%
    22:00 +5°C° 0.2 mm 5 mps 722 mmHg 77%
    23:00 +3°C° 0 mm 5 mps 721 mmHg 79%

    27 October, Saturday

    Time Temperature Precipitation Wind Pressure Humidity
    00:00 +3°C° 0 mm 5 mps 721 mmHg 81%
    01:00 +2°C° 0 mm 5 mps 721 mmHg 83%
    02:00 +2°C° 0 mm 5 mps 721 mmHg 83%
    03:00 +1°C° 0 mm 5 mps 721 mmHg 84%
    04:00 +1°C° 0 mm 5 mps 721 mmHg 84%
    05:00 +1°C° 0 mm 5 mps 721 mmHg 85%
    06:00 +1°C° 0 mm 5 mps 721 mmHg 86%
    07:00 0°C° 0 mm 5 mps 721 mmHg 87%
    08:00 +1°C° 0 mm 5 mps 722 mmHg 81%
    09:00 +2°C° 0 mm 5 mps 722 mmHg 75%
    10:00 +3°C° 0 mm 6 mps 722 mmHg 69%
    11:00 +4°C° 0 mm 6 mps 722 mmHg 65%
    12:00 +5°C° 0 mm 6 mps 722 mmHg 60%
    13:00 +5°C° 0 mm 6 mps 722 mmHg 55%
    14:00 +6°C° 0 mm 5 mps 722 mmHg 56%
    15:00 +6°C° 0 mm 4 mps 722 mmHg 57%
    16:00 +5°C° 0 mm 3 mps 722 mmHg 58%
    17:00 +4°C° 0 mm 3 mps 722 mmHg 63%
    18:00 +4°C° 0 mm 2 mps 722 mmHg 69%
    19:00 +2°C° 0 mm 2 mps 722 mmHg 74%
    20:00 +2°C° 0 mm 2 mps 722 mmHg 76%
    21:00 +2°C° 0 mm 1 mps 722 mmHg 77%
    22:00 +2°C° 0 mm 1 mps 722 mmHg 79%
    23:00 +2°C° 0 mm 1 mps 722 mmHg 79%

    28 October, Sunday

    Time Temperature Precipitation Wind Pressure Humidity
    00:00 +2°C° 0 mm 1 mps 722 mmHg 79%
    01:00 +2°C° 0 mm 1 mps 722 mmHg 80%
    02:00 -1°C° 0 mm 2 mps 721 mmHg 80%
    03:00 -1°C° 0 mm 2 mps 721 mmHg 80%
    04:00 -1°C° 0 mm 2 mps 721 mmHg 80%
    05:00 -1°C° 0 mm 2 mps 721 mmHg 81%
    06:00 -2°C° 0 mm 2 mps 722 mmHg 82%
    07:00 -2°C° 0 mm 2 mps 722 mmHg 82%
    08:00 -1°C° 0 mm 2 mps 722 mmHg 78%
    09:00 +1°C° 0 mm 3 mps 723 mmHg 73%
    10:00 +2°C° 0 mm 3 mps 723 mmHg 68%
    11:00 +3°C° 0 mm 4 mps 724 mmHg 67%
    12:00 +3°C° 0 mm 4 mps 724 mmHg 65%
    13:00 +4°C° 0 mm 4 mps 724 mmHg 64%
    14:00 +4°C° 0.1 mm 4 mps 725 mmHg 67%
    15:00 +4°C° 0.1 mm 4 mps 725 mmHg 71%
    16:00 +3°C° 0.1 mm 4 mps 725 mmHg 75%
    17:00 +3°C° 0.2 mm 3 mps 726 mmHg 80%
    18:00 +2°C° 0.2 mm 3 mps 726 mmHg 85%
    19:00 +2°C° 0.2 mm 2 mps 726 mmHg 90%
    20:00 +2°C° 0.1 mm 2 mps 727 mmHg 90%
    21:00 +2°C° 0.1 mm 2 mps 727 mmHg 91%
    22:00 +1°C° 0.1 mm 2 mps 728 mmHg 92%
    23:00 +1°C° 0 mm 2 mps 728 mmHg 93%

    29 October, Monday

    Time Temperature Precipitation Wind Pressure Humidity
    00:00 +1°C° 0 mm 2 mps 728 mmHg 93%
    01:00 +1°C° 0 mm 1 mps 728 mmHg 94%
    02:00 +1°C° 0 mm 1 mps 728 mmHg 94%
    03:00 +1°C° 0 mm 1 mps 729 mmHg 95%
    04:00 +1°C° 0 mm 1 mps 729 mmHg 95%
    05:00 +1°C° 0 mm 1 mps 729 mmHg 95%
    06:00 0°C° 0 mm 1 mps 729 mmHg 95%
    07:00 0°C° 0 mm 1 mps 730 mmHg 94%
    08:00 +1°C° 0.1 mm 1 mps 730 mmHg 90%
    09:00 +2°C° 0.1 mm 1 mps 730 mmHg 85%
    10:00 +3°C° 0.1 mm 1 mps 731 mmHg 81%
    11:00 +3°C° 0.1 mm 1 mps 731 mmHg 77%
    12:00 +4°C° 0.1 mm 1 mps 730 mmHg 74%
    13:00 +3°C° 0.1 mm 2 mps 730 mmHg 70%
    14:00 +4°C° 0 mm 1 mps 730 mmHg 70%
    15:00 +4°C° 0 mm 1 mps 730 mmHg 70%
    16:00 +4°C° 0 mm 1 mps 729 mmHg 69%
    17:00 +2°C° 0 mm 1 mps 729 mmHg 74%
    18:00 +1°C° 0 mm 1 mps 729 mmHg 79%
    19:00 -1°C° 0 mm 0 mps 729 mmHg 84%
    20:00 -1°C° 0 mm 1 mps 729 mmHg 85%
    21:00 -1°C° 0 mm 1 mps 729 mmHg 86%
    22:00 -1°C° 0 mm 1 mps 729 mmHg 87%
    23:00 -2°C° 0 mm 1 mps 728 mmHg 87%
    Show more